Other Public Products
Issued by NWS Grand Forks, ND

Home | Current Version | Previous Version | Graphics & Text | Print | Product List | Glossary On
Versions: 1 2 3 4 5 6 7 8 9 10 11 12 13 14 15 16 17 18 19 20 21 22 23 24 25 26 27 28 29 30 31 32 33 34 35 36 37 38 39 40 41 42 43 44 45 46 47 48 49 50
000
FPUS83 KFGF 300931
OPUFGF
PRAIRIE TO PINES WEATHER ROUNDUP
NATIONAL WEATHER SERVICE EASTERN NORTH DAKOTA/GRAND FORKS ND
400 AM CDT SAT AUG 30 2014

 **SATELLITE DATA USED TO AUGMENT SKY COVER AT AUTOMATED STATIONS**
 *****  WEATHER ACROSS EASTERN NORTH DAKOTA  *****

CITY           SKY/WX    TMP DP  RH WIND       PRES   REMARKS
GRAND FORKS    CLEAR     51  50  96 NW9       29.93R
GRAND FORKS AF CLEAR     51  51  99 N7        29.95R
GRAND CITY NWS   N/A     50 N/A N/A N5          N/A
BUXTON           N/A     53  52  98 NW5         N/A
DEVILS LAKE    CLEAR     46  39  76 N6        29.96S
FARGO          CLOUDY    59  53  80 N12       29.89S
WAHPETON ARPT  CLOUDY    59  55  88 N10       29.88R
$$

 *****  WEATHER ACROSS CENTRAL AND WESTERN NORTH DAKOTA  *****

CITY           SKY/WX    TMP DP  RH WIND       PRES   REMARKS
JAMESTOWN      CLEAR     52  50  93 N5        29.96R
BISMARCK       CLEAR     48  47  96 CALM      29.99F FOG
MINOT          CLEAR     50  46  86 S5        29.96S
MINOT AFB      CLEAR     47  47  99 SW6       29.96S
GARRISON         N/A     49  47  93 CALM      29.98S
WILLISTON      CLEAR     57  51  80 SE5       29.93F
DICKINSON      CLEAR     50  48  93 SE9       29.95F
HETTINGER      CLEAR     51  49  92 SE5       29.99F
$$

 *****  OTHER OBSERVATIONS NORTHEAST NORTH DAKOTA  *****

CITY           SKY/WX    TMP DP  RH WIND       PRES   REMARKS
WALHALLA       FAIR      46  46 100 NW3       29.97S
LANGDON        FOG       39  37  93 W3        29.98R VSB 1
CAVALIER       FAIR      46  45  93 NW3       29.96S
GRAFTON        FAIR      48  48 100 N7        29.95R
CANDO          FOG       43  43 100 CALM      29.99S VSB 1/4
FORT TOTTEN      N/A     52  49  91 NE2       29.95S
ROLLA          FAIR      39  39 100 CALM      30.00S
RUGBY          FAIR      46  46 100 SE3       29.99R
 ***** THE ABOVE OBSERVATIONS ARE NON NWS ARE NOT QUALITY
        CONTROLLED AND MAY MIS-REPORT RAIN FOR SNOW...
$$

 *****  OTHER OBSERVATIONS SOUTHEAST NORTH DAKOTA *****

CITY           SKY/WX    TMP DP  RH WIND       PRES   REMARKS
COOPERSTOWN    NOT AVBL
VALLEY CITY    CLOUDY    55  55 100 N9        29.94S
OAKES            N/A     57  57 100 N9        29.93S
GWINNER        CLOUDY    61  57  88 N10       29.93R
SHEYENNE NWR     N/A     60  53  78 N7        29.95
BUFFALO          N/A     56  51  84 CALM        N/A
WYNDMERE       NOT AVBL
 ***** THE ABOVE OBSERVATIONS ARE NON NWS ARE NOT QUALITY
       CONTROLLED AND MAY MIS-REPORT RAIN FOR SNOW...
$$

  *****  WEATHER ACROSS NORTHERN MINNESOTA  *****

CITY           SKY/WX    TMP DP  RH WIND       PRES   REMARKS
FLAG ISLAND    CLEAR     59  54  82 N13       29.91R
WARROAD        CLEAR     50  46  87 NW6       29.93R
ROSEAU         CLEAR     48  45  87 N5        29.93R
HALLOCK        CLEAR     46  45  93 N3        29.95R
THF RVR FALLS  CLEAR     54  50  87 N8        29.92R
HALSTAD          N/A     55  52  88 N12         N/A
FOSSTON        CLOUDY    55  54  94 N10       29.90R
BAUDETTE       MOCLDY    55  53  93 CALM      29.89S
WASKISH        CLOUDY    57  55  94 N10       29.88S
CROOKSTON      CLEAR     50  48  93 N5        29.93R
$$
  *****  WEATHER ACROSS CENTRAL AND WEST MINNESOTA  *****

CITY           SKY/WX    TMP DP  RH WIND       PRES   REMARKS
BEMIDJI        CLOUDY    58  55  90 N8        29.88R
PARK RAPIDS    CLOUDY    60  59  96 N7        29.85R
WADENA         CLOUDY    63  63 100 N9        29.84R
DETROIT LAKES  CLOUDY    59  55  88 N5        29.89R
MOORHEAD       CLOUDY    59  57  94 N12       29.90R
FERGUS FALLS   CLOUDY    61  59  94 N6        29.86R
ELBOW LAKE     CLOUDY    61  60  99 NW10      29.85S FOG
MORRIS MN      FOG       61  61 100 NW14      29.85R VSB 3/4
STAPLES        CLOUDY    63  63 100 N7        29.83R
WHEATON        CLOUDY    57  55  94 NW10G16   29.89S
$$
  *****  WEATHER ELSEWHERE ACROSS MINNESOTA  *****

CITY           SKY/WX    TMP DP  RH WIND       PRES   REMARKS
DULUTH         CLOUDY    62  59  90 NE6       29.81R
INTRNTL FALLS  PTCLDY    57  54  89 N9        29.87R
ELY            CLOUDY    59  57  94 CALM      29.83S
CLOQUET        CLOUDY    61  61 100 N3        29.81R
BRAINERD       FOG       63  63 100 CALM      29.82R VSB 1
HIBBING        CLOUDY    62  60  93 N3        29.82S
ALEXANDRIA     CLOUDY    66  64  93 NW7       29.84S
SAINT CLOUD    CLOUDY    67  64  90 CALM      29.80R FOG
MINNEAPOLIS    CLOUDY    68  68 100 N8        29.76R
$$

  *****  WEATHER ACROSS SOUTH DAKOTA  *****

CITY           SKY/WX    TMP DP  RH WIND       PRES   REMARKS
SIOUX FALLS    CLOUDY    66  64  93 NW12      29.87S
BROOKINGS      NOT AVBL
WATERTOWN      CLOUDY    59  58  96 N10       29.89S
HURON          CLOUDY    61  58  90 NW8       29.92S
SISSETON         N/A     60  59  96 N10       29.88R
ABERDEEN       CLOUDY    59  56  89 N12       29.93S
MITCHELL       CLOUDY    60  59  96 NW8       29.93S
PIERRE         CLEAR     54  53  97 N6        29.96F
MOBRIDGE       CLEAR     51  51 100 N6        29.97R
RAPID CITY     CLEAR     50  48  93 CALM      30.00F
$$

  *****  SOME WEATHER IN NEARBY STATES *****

CITY           SKY/WX    TMP DP  RH WIND       PRES   REMARKS
GLASGOW MT     CLEAR     56  52  86 E14       29.81F
GREAT FALLS MT MOCLDY    62  48  60 SW9       29.78F
CHEYENNE WY    CLEAR     51  45  79 W8        30.13F
SCOTTSBLUFF NE CLEAR     55  53  93 E6        30.04F
OMAHA NE       CLEAR     65  62  90 NW6       29.87R
DES MOINES IA  CLOUDY    67  65  93 SW3       29.82R
DAVENPORT IA   LGT RAIN  69  67  93 S7        29.83R
CHICAGO IL     CLOUDY    75  66  73 SW13      29.84R
EAU CLAIRE WI  CLOUDY    67  67 100 NW5       29.74S
LA CROSSE WI   LGT RAIN  69  67  93 CALM      29.73F
$$

  *****  SOME NATIONAL WEATHER *****

CITY           SKY/WX    TMP DP  RH WIND       PRES   REMARKS
LA GUARDIA NY  MOCLDY    68  56  65 CALM      30.26R
RALEIGH NC     CLOUDY    72  68  87 SE5       30.19S
ATLANTA GA     MOCLDY    74  65  73 SE3       30.12S
NEW ORLEANS LA CLOUDY    79  75  87 SE6       29.99S
OKLAHOMA CITY  PTCLDY    69  65  86 S3        29.95R
ALBUQUERQUE NM CLEAR     69  42  37 N6        30.15R
SALT LAKE CITY MOCLDY    74  44  34 SE17      29.90F
LOS ANGELES CA PTCLDY    68  64  87 CALM      29.82F
BOISE ID       PTCLDY    68  45  43 W8        29.83R
SEATTLE WA     MOCLDY    62  55  77 S3        29.95F
$$

*** WEATHER ACROSS MANITOBA...SASKATCHEWAN AND ONTARIO ***
                ***ONTARIO***

CITY           SKY/WX    TMP DP  RH WIND       PRES   REMARKS
GERALDTON      CLOUDY    54  54 100 NW3       29.81R FOG
THUNDER BAY    MOCLDY    55  55 100 SW2       29.80
SIOUX LOOKOUT  CLOUDY    55  54  94 N5        29.90R
TORONTO        MOCLDY    64  61  88 SE5       30.05F
BIG TROUT LK   CLOUDY    48  46  93 NW5       29.91R
PICKLE LAKE    NOT AVBL
DRYDEN         CLOUDY    54  54 100 NE7       29.91R
KENORA         CLEAR     52  50  93 N6        29.93S
$$
                *** MANITOBA***

CITY           SKY/WX    TMP DP  RH WIND       PRES   REMARKS
BRANDON        CLEAR     43  41  93 NE3       29.99S
DAUPHIN        CLEAR     43  43 100 CALM      29.96F
ISLAND LAKE    PTCLDY    46  45  93 N6        29.97R
PILOT MOUND      N/A     39  39 100 W2          N/A
THE PAS        CLEAR     46  45  93 SE6       29.91F
THOMPSON       MOCLDY    41  41 100 W3        29.93S
WINNIPEG       CLEAR     43  41  93 NW2       29.97S
LYNN LAKE      CLEAR     41  39  93 MISG      29.89S
CHURCHILL      PTCLDY    46  41  81 W13       29.79S
GILLAM         PTCLDY    41  39  93 SW6       29.90S
$$
                ***SASKATCHEWAN***

CITY           SKY/WX    TMP DP  RH WIND       PRES   REMARKS
ESTEVAN        PTCLDY    50  48  93 SE5       29.93F
KINDERSLEY     TSTM      57  54  88 S9        29.63F
LLOYDMINSTER   LGT RAIN  52  48  87 SE6       29.61F
PRINCE ALBERT  NOT AVBL
REGINA         CLEAR     52  46  82 SE13      29.86F



USA.gov is the U.S. government's official web portal to all federal, state and local government web resources and services.